When you browse on this site, cookies collect data to enhance your experience and personalize the content and advertising you see.
Visit our Privacy Policy to learn more. By continuing to use the site, you agree to this use of cookies and data.
  • In Italy
  • List of Countries
  • For 7 days
  • Water Temperature
  • Satellite Maps
  • Weather Map
  • Weather Widgets
  • user-avatar
    Login

    Hourly Weather Zverevo

    Today, 17 January, Thursday

    Time Temperature Precipitation Wind Pressure Humidity
    00:00 -4°C° 0.3 mm 7 mps 733 mmHg 90%
    01:00 -5°C° 0.4 mm 6 mps 733 mmHg 91%
    02:00 -5°C° 0.4 mm 5 mps 733 mmHg 92%
    03:00 -5°C° 0 mm 4 mps 734 mmHg 94%
    04:00 -7°C° 0.1 mm 4 mps 735 mmHg 93%
    05:00 -8°C° 0.1 mm 4 mps 735 mmHg 93%
    06:00 -9°C° 0.1 mm 4 mps 736 mmHg 92%
    07:00 -11°C° 0 mm 5 mps 737 mmHg 93%
    08:00 -13°C° 0 mm 5 mps 738 mmHg 93%
    09:00 -14°C° 0 mm 5 mps 738 mmHg 94%
    10:00 -14°C° 0 mm 5 mps 739 mmHg 93%
    11:00 -13°C° 0 mm 5 mps 739 mmHg 92%
    12:00 -13°C° 0 mm 5 mps 740 mmHg 91%
    13:00 -12°C° 0 mm 4 mps 740 mmHg 91%
    14:00 -12°C° 0 mm 4 mps 740 mmHg 90%
    15:00 -12°C° 0 mm 4 mps 741 mmHg 90%
    16:00 -12°C° 0 mm 4 mps 741 mmHg 90%
    17:00 -12°C° 0 mm 4 mps 741 mmHg 90%
    18:00 -11°C° 0 mm 4 mps 741 mmHg 91%
    19:00 -11°C° 0 mm 4 mps 741 mmHg 91%
    20:00 -12°C° 0 mm 5 mps 741 mmHg 91%
    21:00 -12°C° 0 mm 5 mps 741 mmHg 91%
    22:00 -13°C° 0 mm 5 mps 741 mmHg 90%
    23:00 -14°C° 0 mm 6 mps 740 mmHg 90%

    Tomorrow, 18 January, Friday

    Time Temperature Precipitation Wind Pressure Humidity
    00:00 -14°C° 0 mm 6 mps 740 mmHg 90%
    01:00 -14°C° 0 mm 7 mps 740 mmHg 90%
    02:00 -14°C° 0 mm 7 mps 739 mmHg 90%
    03:00 -14°C° 0 mm 7 mps 738 mmHg 90%
    04:00 -13°C° 0.2 mm 8 mps 738 mmHg 90%
    05:00 -12°C° 0.2 mm 8 mps 737 mmHg 90%
    06:00 -11°C° 0.2 mm 8 mps 737 mmHg 90%
    07:00 -10°C° 0.2 mm 8 mps 737 mmHg 89%
    08:00 -10°C° 0.2 mm 8 mps 737 mmHg 88%
    09:00 -8°C° 0.2 mm 8 mps 736 mmHg 88%
    10:00 -7°C° 0.2 mm 8 mps 736 mmHg 87%
    11:00 -7°C° 0.2 mm 8 mps 736 mmHg 87%
    12:00 -6°C° 0.2 mm 8 mps 736 mmHg 87%
    13:00 -6°C° 0 mm 8 mps 737 mmHg 86%
    14:00 -5°C° 0 mm 8 mps 737 mmHg 86%
    15:00 -4°C° 0 mm 7 mps 738 mmHg 86%
    16:00 -4°C° 0 mm 7 mps 739 mmHg 87%
    17:00 -3°C° 0 mm 7 mps 739 mmHg 87%
    18:00 -3°C° 0 mm 6 mps 740 mmHg 88%
    19:00 -3°C° 0 mm 6 mps 740 mmHg 88%
    20:00 -3°C° 0 mm 6 mps 740 mmHg 89%
    21:00 -2°C° 0 mm 5 mps 741 mmHg 89%
    22:00 -4°C° 0 mm 5 mps 741 mmHg 90%
    23:00 -5°C° 0 mm 5 mps 741 mmHg 91%

    Day after tomorrow, 19 January, Saturday

    Time Temperature Precipitation Wind Pressure Humidity
    00:00 -5°C° 0 mm 5 mps 741 mmHg 92%
    01:00 -6°C° 0 mm 5 mps 740 mmHg 92%
    02:00 -6°C° 0 mm 5 mps 740 mmHg 92%
    03:00 -6°C° 0 mm 5 mps 740 mmHg 92%
    04:00 -6°C° 0.1 mm 6 mps 740 mmHg 91%
    05:00 -7°C° 0.1 mm 7 mps 739 mmHg 90%
    06:00 -7°C° 0.1 mm 8 mps 738 mmHg 90%
    07:00 -6°C° 0.2 mm 8 mps 738 mmHg 89%
    08:00 -6°C° 0.2 mm 8 mps 737 mmHg 89%
    09:00 -5°C° 0.2 mm 8 mps 737 mmHg 88%
    10:00 -4°C° 0.1 mm 8 mps 737 mmHg 87%
    11:00 -4°C° 0.1 mm 8 mps 738 mmHg 85%
    12:00 -2°C° 0.1 mm 7 mps 738 mmHg 84%
    13:00 -4°C° 0 mm 7 mps 739 mmHg 84%
    14:00 -5°C° 0 mm 6 mps 739 mmHg 84%
    15:00 -7°C° 0 mm 5 mps 740 mmHg 85%
    16:00 -9°C° 0 mm 4 mps 741 mmHg 87%
    17:00 -11°C° 0 mm 4 mps 741 mmHg 89%
    18:00 -14°C° 0 mm 3 mps 742 mmHg 92%
    19:00 -14°C° 0 mm 3 mps 742 mmHg 92%
    20:00 -15°C° 0 mm 3 mps 742 mmHg 93%
    21:00 -16°C° 0 mm 3 mps 743 mmHg 93%
    22:00 -15°C° 0 mm 2 mps 743 mmHg 95%
    23:00 -16°C° 0 mm 2 mps 743 mmHg 96%

    20 January, Sunday

    Time Temperature Precipitation Wind Pressure Humidity
    00:00 -17°C° 0 mm 2 mps 743 mmHg 98%
    01:00 -17°C° 0 mm 2 mps 744 mmHg 97%
    02:00 -17°C° 0 mm 2 mps 744 mmHg 97%
    03:00 -18°C° 0 mm 2 mps 744 mmHg 97%
    04:00 -18°C° 0 mm 2 mps 744 mmHg 97%
    05:00 -18°C° 0 mm 2 mps 744 mmHg 97%
    06:00 -18°C° 0 mm 2 mps 744 mmHg 96%
    07:00 -19°C° 0 mm 3 mps 744 mmHg 96%
    08:00 -18°C° 0 mm 3 mps 745 mmHg 97%
    09:00 -18°C° 0 mm 3 mps 745 mmHg 97%
    10:00 -17°C° 0 mm 3 mps 745 mmHg 96%
    11:00 -16°C° 0 mm 3 mps 745 mmHg 95%
    12:00 -15°C° 0 mm 3 mps 745 mmHg 95%
    13:00 -14°C° 0 mm 3 mps 745 mmHg 94%
    14:00 -14°C° 0 mm 3 mps 745 mmHg 93%
    15:00 -14°C° 0 mm 3 mps 745 mmHg 93%
    16:00 -14°C° 0 mm 3 mps 745 mmHg 93%
    17:00 -14°C° 0 mm 3 mps 746 mmHg 94%
    18:00 -15°C° 0 mm 3 mps 746 mmHg 94%
    19:00 -15°C° 0 mm 3 mps 746 mmHg 94%
    20:00 -15°C° 0 mm 3 mps 746 mmHg 95%
    21:00 -15°C° 0 mm 3 mps 746 mmHg 95%
    22:00 -15°C° 0 mm 4 mps 746 mmHg 95%
    23:00 -15°C° 0 mm 4 mps 746 mmHg 95%

    21 January, Monday

    Time Temperature Precipitation Wind Pressure Humidity
    00:00 -15°C° 0 mm 4 mps 746 mmHg 96%
    01:00 -15°C° 0.1 mm 4 mps 746 mmHg 95%
    02:00 -15°C° 0.1 mm 4 mps 746 mmHg 94%
    03:00 -15°C° 0.1 mm 5 mps 746 mmHg 94%
    04:00 -14°C° 0.1 mm 5 mps 745 mmHg 93%
    05:00 -14°C° 0.1 mm 5 mps 745 mmHg 92%
    06:00 -13°C° 0.1 mm 5 mps 745 mmHg 91%
    07:00 -13°C° 0.1 mm 5 mps 744 mmHg 91%
    08:00 -14°C° 0.1 mm 6 mps 744 mmHg 90%
    09:00 -14°C° 0.1 mm 6 mps 744 mmHg 90%
    10:00 -12°C° 0.1 mm 6 mps 744 mmHg 89%
    11:00 -12°C° 0.1 mm 6 mps 744 mmHg 89%
    12:00 -11°C° 0.1 mm 6 mps 744 mmHg 88%
    13:00 -12°C° 0 mm 6 mps 744 mmHg 88%
    14:00 -12°C° 0 mm 6 mps 744 mmHg 87%
    15:00 -14°C° 0 mm 6 mps 744 mmHg 87%
    16:00 -13°C° 0 mm 5 mps 744 mmHg 88%
    17:00 -14°C° 0 mm 5 mps 744 mmHg 90%
    18:00 -14°C° 0 mm 4 mps 744 mmHg 91%
    19:00 -12°C° 0.1 mm 4 mps 744 mmHg 92%
    20:00 -12°C° 0.1 mm 4 mps 744 mmHg 93%
    21:00 -10°C° 0.1 mm 3 mps 743 mmHg 94%
    22:00 -10°C° 0.2 mm 3 mps 743 mmHg 94%
    23:00 -10°C° 0.2 mm 3 mps 743 mmHg 94%

    22 January, Tuesday

    Time Temperature Precipitation Wind Pressure Humidity
    00:00 -10°C° 0.2 mm 3 mps 743 mmHg 94%
    01:00 -10°C° 0.1 mm 3 mps 743 mmHg 94%
    02:00 -10°C° 0.1 mm 3 mps 742 mmHg 94%
    03:00 -10°C° 0.1 mm 3 mps 742 mmHg 95%
    04:00 -12°C° 0.1 mm 3 mps 742 mmHg 95%
    05:00 -12°C° 0.1 mm 3 mps 741 mmHg 95%
    06:00 -12°C° 0.1 mm 3 mps 741 mmHg 96%
    07:00 -12°C° 0.1 mm 2 mps 741 mmHg 96%
    08:00 -12°C° 0.1 mm 2 mps 741 mmHg 96%
    09:00 -12°C° 0.1 mm 2 mps 741 mmHg 97%
    10:00 -10°C° 0.1 mm 1 mps 741 mmHg 96%
    11:00 -9°C° 0.1 mm 1 mps 741 mmHg 95%
    12:00 -9°C° 0.1 mm 1 mps 740 mmHg 94%
    13:00 -10°C° 0.1 mm 2 mps 741 mmHg 94%
    14:00 -13°C° 0.1 mm 3 mps 741 mmHg 94%
    15:00 -14°C° 0.1 mm 4 mps 741 mmHg 94%
    16:00 -16°C° 0.1 mm 4 mps 741 mmHg 94%
    17:00 -17°C° 0.1 mm 4 mps 741 mmHg 94%
    18:00 -19°C° 0.1 mm 4 mps 742 mmHg 95%
    19:00 -20°C° 0 mm 4 mps 742 mmHg 95%
    20:00 -22°C° 0 mm 4 mps 742 mmHg 95%
    21:00 -23°C° 0 mm 4 mps 743 mmHg 96%
    22:00 -24°C° 0 mm 4 mps 743 mmHg 96%
    23:00 -24°C° 0 mm 3 mps 744 mmHg 97%
    Show more